This demonstration page uses our WeatherBlox Daily Observations layout. Learn more.

Left ArrowRight Arrow

Hourly Observations for October 16, 2019

Temp ( °F °C ) Dew Point ( °F °C ) Humidity (%) Winds ( mph kmh ) Pressure ( in mb ) Visibility ( mi km ) Precip ( " mm )
12:53 am 00:53 Cloudy with Mist and Fog 64 17.8 63 17.2 96 96 E 5 7 29.90 1013 6 10 0.00 0.00
1:51 am 01:51 Cloudy with Light Rain 64 18 63 17 94 94 E 6 9 29.87 1012 4 6 0.00 0.00
1:53 am 01:53 Cloudy with Light Rain 64 17.8 62 16.7 93 93 E 5 7 29.87 1012 4 6 0.00 0.00
2:38 am 02:38 Cloudy with Light Rain 64 17.8 62 16.7 93 93 ENE 3 6 29.85 1011 4 6 0.01 0.25
2:53 am 02:53 Cloudy with Mist and Fog 64 17.8 62 16.7 93 93 NNE 3 6 29.84 1011 6 10 0.02 0.51
3:53 am 03:53 Cloudy with Heavy Rain 64 17.8 62 16.7 93 93 NNE 5 7 29.82 1010 3 5 0.11 2.79
4:37 am 04:37 Cloudy with Rain 64 17.8 62 16.7 93 93 ENE 5 7 29.81 1009 3 5 0.12 3.05
4:45 am 04:45 Cloudy with Light Rain 63 17.2 62 16.7 97 97 ENE 3 6 29.81 1009 3 5 0.13 3.30
4:53 am 04:53 Cloudy with Light Rain 63 17.2 62 16.7 97 97 E 5 7 29.79 1009 3 5 0.15 3.81
5:00 am 05:00 Cloudy with Light Rain 63 17.2 62 16.7 97 97 ENE 5 7 29.80 1009 4 6 0.02 0.51
5:53 am 05:53 Cloudy with Rain 63 17.2 62 16.7 97 97 Calm 29.80 1009 3 4 0.19 4.83
6:05 am 06:05 Cloudy with Light Rain 63 17.2 62 16.7 97 97 Calm 29.80 1009 4 6 0.01 0.25
6:53 am 06:53 Cloudy with Mist and Fog 63 17.2 62 16.7 97 97 Calm 29.79 1009 6 10 0.01 0.25
7:00 am 07:00 Cloudy with Mist and Fog 63 17.2 62 16.7 97 97 Calm 29.80 1009 4 6 0.00 0.00
7:53 am 07:53 Cloudy with Mist and Fog 63 17.2 62 16.7 97 97 Calm 29.79 1009 2 3 0.00 0.00
8:12 am 08:12 Cloudy with Mist and Fog 63 17.2 62 16.7 97 97 Calm 29.79 1009 4 6 0.00 0.00
8:53 am 08:53 Cloudy with Mist and Fog 64 17.8 63 17.2 96 96 Calm 29.80 1009 4 6 0.00 0.00
9:53 am 09:53 Cloudy 66 18.9 63 17.2 90 90 WNW 6 9 29.80 1009 7 11 0.00 0.00
10:53 am 10:53 Cloudy 67 19.4 63 17.2 87 87 NW 8 13 29.83 1010 7 11 0.00 0.00
11:42 am 11:42 Mostly Cloudy 69 20.6 62 16.7 78 78 NW 10 17 29.84 1010 10 16 0.00 0.00
11:53 am 11:53 Mostly Cloudy 70 21.1 62 16.7 76 76 WNW 12 19 29.84 1011 10 16 0.00 0.00
12:53 pm 12:53 Mostly Cloudy 71 21.7 60 15.6 68 68 WNW 16 26 29.85 1011 10 16 0.00 0.00
1:53 pm 13:53 Mostly Cloudy 71 21.7 58 14.4 63 63 WNW 14 22 29.84 1011 10 16 0.00 0.00
2:21 pm 14:21 Mostly Cloudy 70 21.1 58 14.4 66 66 NW 14 22 29.83 1010 10 16 0.00 0.00
2:37 pm 14:37 Partly Cloudy 68 20 56 13.3 65 65 NW 16 26 29.84 1010 10 16 0.00 0.00
2:53 pm 14:53 Mostly Sunny 68 20 55 12.8 63 63 WNW 16 26 29.85 1011 10 16 0.00 0.00
3:53 pm 15:53 Sunny 67 19.4 53 11.7 61 61 WNW 13 20 29.85 1011 10 16 0.00 0.00
4:53 pm 16:53 Sunny 67 19.4 50 10 55 55 WNW 9 15 29.86 1011 10 16 0.00 0.00
5:53 pm 17:53 Sunny 66 18.9 49 9.4 54 54 W 7 11 29.86 1011 10 16 0.00 0.00
6:53 pm 18:53 Sunny 63 17.2 44 6.7 50 50 WNW 9 15 29.87 1012 10 16 0.00 0.00
7:53 pm 19:53 Clear 60 15.6 43 6.1 53 53 WNW 7 11 29.89 1012 10 16 0.00 0.00
8:53 pm 20:53 Clear 57 13.9 44 6.7 62 62 W 5 7 29.91 1013 10 16 0.00 0.00
9:53 pm 21:53 Clear 56 13.3 43 6.1 62 62 W 5 7 29.92 1013 10 16 0.00 0.00
10:53 pm 22:53 Clear 56 13.3 41 5 57 57 NW 7 11 29.93 1014 10 16 0.00 0.00
11:53 pm 23:53 Clear 54 12.2 40 4.4 59 59 VRB 5 7 29.95 1014 10 16 0.00 0.00

Powered by AerisWeather